EW8929 Campdevanol ES current weather conditions

sailwx.info

Wind from 252

Air temperature 45.6° C
Dewpoint 45.6° C

Last reported at 2020-Aug-12 05:01 UTC.
Time now 2020-Aug-12 06:09 UTC

Location: N 42°13' E 002°10'.
View on Google Maps.

See reports from other nearby stations

  
Tides and Currents Weather Stations Pressure Air Temp Water Temp Dewpoint Dewpoint Depression Visibility Wind Speed Wind Dir Waves Ship Positions
date/time (UTC)wind fromknots sea level pressurealtimeterstation pressurevisibilityair tempwater tempwave heightnotes
2020-Aug-12 05:01 252 45.6
2020-Aug-12 04:46 247 45.6
2020-Aug-12 04:31 245 46.1
2020-Aug-12 04:15 248 46.1
2020-Aug-12 04:01 237 46.1
2020-Aug-12 03:45 251 46.7
2020-Aug-12 03:30 278 46.7
2020-Aug-12 03:15 257 47.2
2020-Aug-12 03:00 253 47.2
2020-Aug-12 02:45 255 47.2
2020-Aug-12 02:31 249 47.2
2020-Aug-12 02:16 249 47.8
2020-Aug-12 02:01 249 47.8
2020-Aug-12 01:45 237 47.8
2020-Aug-12 01:30 235 47.8
2020-Aug-12 01:15 235 47.8
2020-Aug-12 01:00 234 47.8
2020-Aug-12 00:45 248 47.8
2020-Aug-12 00:31 248 47.8
2020-Aug-12 00:15 239 47.8
2020-Aug-12 00:00 252 48.3
2020-Aug-11 23:45 257 47.8
2020-Aug-11 23:30 249 47.8
2020-Aug-11 23:15 248 48.3
2020-Aug-11 23:00 248 48.3
2020-Aug-11 22:45 247 48.9
2020-Aug-11 22:30 247 48.9
2020-Aug-11 22:17 246 49.4
2020-Aug-11 21:46 246 50.0
2020-Aug-11 21:31 246 50.0
2020-Aug-11 21:01 246 51.1
2020-Aug-11 20:46 246 51.7
2020-Aug-11 20:31 245 52.2
2020-Aug-11 20:16 245 52.8
2020-Aug-11 20:02 245 53.3
2020-Aug-11 19:47 245 53.3
2020-Aug-11 19:31 245 53.3
2020-Aug-11 19:16 245 53.3
2020-Aug-11 19:01 245 53.3
2020-Aug-11 18:46 234 53.9
2020-Aug-11 18:32 255 54.4
2020-Aug-11 18:17 243 54.4
2020-Aug-11 18:02 251 55.0
2020-Aug-11 17:46 250 56.1
2020-Aug-11 17:31 248 56.7
2020-Aug-11 17:16 252 57.2
2020-Aug-11 17:01 247 59.4
2020-Aug-11 16:46 201 62.2
2020-Aug-11 16:30 149 62.8
2020-Aug-11 16:15 133 65.6
2020-Aug-11 16:00 245 64.4
2020-Aug-11 15:45 263 65.6
2020-Aug-11 15:30 122 67.2
2020-Aug-11 15:15 229 66.1
2020-Aug-11 15:00 130 66.7
2020-Aug-11 14:45 070 66.7
2020-Aug-11 14:30 140 67.2
2020-Aug-11 14:15 146 66.1
2020-Aug-11 14:00 268 65.6
2020-Aug-11 13:45 099 66.1
2020-Aug-11 13:17 332 67.2
2020-Aug-11 13:01 092 66.7
2020-Aug-11 12:46 043 66.1
2020-Aug-11 12:31 323 64.4
2020-Aug-11 12:15 146 62.2
2020-Aug-11 12:01 054 62.2
2020-Aug-11 11:47 127 62.2
2020-Aug-11 11:31 357 61.1
2020-Aug-11 11:15 082 60.6
2020-Aug-11 11:00 281 60.0
2020-Aug-11 10:45 347 59.4
2020-Aug-11 10:30 287 59.4
2020-Aug-11 10:15 337 60.0
2020-Aug-11 10:01 334 59.4
2020-Aug-11 09:47 015 58.3
2020-Aug-11 09:32 322 58.3
2020-Aug-11 09:16 262 58.9
2020-Aug-11 09:01 248 59.4
2020-Aug-11 08:46 102 59.4
2020-Aug-11 08:30 102 59.4
2020-Aug-11 08:15 221 57.8
2020-Aug-11 08:00 109 56.7
2020-Aug-11 07:45 209 55.0
2020-Aug-11 07:30 236 52.2
2020-Aug-11 07:15 108 52.2
2020-Aug-11 07:00 250 51.1
2020-Aug-11 06:45 250 48.3
2020-Aug-11 06:30 250 46.7
2020-Aug-11 06:17 250 45.6
2020-Aug-11 06:02 250 45.0
2020-Aug-11 05:46 250 45.0
2020-Aug-11 05:32 250 45.0
2020-Aug-11 05:16 248 44.4
2020-Aug-11 05:01 250 44.4
2020-Aug-11 04:46 250 44.4
2020-Aug-11 04:32 250 44.4
2020-Aug-11 04:16 250 44.4
2020-Aug-11 04:02 250 44.4
2020-Aug-11 03:46 250 43.9
2020-Aug-11 03:32 249 43.9
2020-Aug-11 03:16 246 43.3
2020-Aug-11 03:01 251 43.3
2020-Aug-11 02:46 252 43.3
2020-Aug-11 02:32 252 43.3
2020-Aug-11 02:16 250 43.3
2020-Aug-11 02:01 250 43.9
2020-Aug-11 01:46 250 43.9
2020-Aug-11 01:31 250 43.9
2020-Aug-11 01:16 256 44.4
2020-Aug-11 01:01 257 45.0
2020-Aug-11 00:46 252 45.0
2020-Aug-11 00:30 252 45.0
2020-Aug-11 00:15 252 45.6
2020-Aug-11 00:01 252 45.6
2020-Aug-10 23:45 252 45.6
2020-Aug-10 23:30 252 45.6
2020-Aug-10 23:15 251 46.1
2020-Aug-10 23:01 253 46.1
2020-Aug-10 22:45 252 46.1
2020-Aug-10 22:30 252 45.6
2020-Aug-10 22:15 252 46.1
2020-Aug-10 22:01 250 46.1
2020-Aug-10 21:45 250 46.1
2020-Aug-10 21:30 250 46.7
2020-Aug-10 21:15 237 47.2
2020-Aug-10 21:00 234 47.2
2020-Aug-10 20:45 253 47.8
2020-Aug-10 20:30 251 48.3
2020-Aug-10 20:15 254 48.9
2020-Aug-10 20:00 254 49.4
2020-Aug-10 19:45 254 50.0
2020-Aug-10 19:30 257 50.6
2020-Aug-10 19:15 250 51.7
2020-Aug-10 19:00 249 52.8
2020-Aug-10 18:45 259 53.9
2020-Aug-10 18:30 238 55.0
2020-Aug-10 18:15 264 55.6
2020-Aug-10 18:00 254 54.4
2020-Aug-10 17:45 250 55.6
2020-Aug-10 17:30 077 58.3
2020-Aug-10 17:16 341 60.0
2020-Aug-10 17:02 335 61.7
2020-Aug-10 16:46 340 63.9
2020-Aug-10 16:31 341 66.1
2020-Aug-10 16:16 340 66.7
2020-Aug-10 16:01 345 67.2
2020-Aug-10 15:46 338 66.7
2020-Aug-10 15:31 342 65.6
2020-Aug-10 15:15 342 63.9
2020-Aug-10 15:00 342 65.6
2020-Aug-10 14:45 153 68.9
2020-Aug-10 14:30 148 62.2
2020-Aug-10 14:15 145 62.2
2020-Aug-10 14:00 151 65.6
2020-Aug-10 13:46 160 68.9
2020-Aug-10 13:31 132 71.7
2020-Aug-10 13:16 122 73.3
2020-Aug-10 13:01 188 70.0
2020-Aug-10 12:46 200 73.3
2020-Aug-10 12:31 262 71.1
2020-Aug-10 12:16 214 69.4
2020-Aug-10 12:00 063 60.6
2020-Aug-10 11:46 222 71.1
2020-Aug-10 11:30 200 71.1
2020-Aug-10 11:15 226 70.6
2020-Aug-10 11:00 256 69.4
2020-Aug-10 10:33 337 63.3
2020-Aug-10 10:16 056 59.4
2020-Aug-10 10:01 130 57.8
2020-Aug-10 09:46 349 56.7
2020-Aug-10 09:31 157 56.7
2020-Aug-10 09:15 155 55.0
2020-Aug-10 09:01 121 53.3
2020-Aug-10 08:46 118 51.1
2020-Aug-10 08:31 143 51.7
2020-Aug-10 08:16 124 51.1
2020-Aug-10 08:01 120 49.4
2020-Aug-10 07:45 352 47.8
2020-Aug-10 07:30 124 47.2
2020-Aug-10 07:16 125 45.6
2020-Aug-10 07:00 167 44.4
2020-Aug-10 06:45 167 42.8
2020-Aug-10 06:30 247 42.2
2020-Aug-10 06:15 240 41.7
2020-Aug-10 06:00 240 41.1